Regional Weather Roundup
Issued by NWS Sioux Falls, SD

Home | Current Version | Previous Version | Text Only | Print | Product List | Glossary On
Versions: 1 2 3 4 5 6 7 8 9 10 11 12 13 14 15 16 17 18 19 20 21 22 23 24 25 26 27 28 29 30 31 32 33 34 35 36 37 38 39 40 41 42 43 44 45 46 47 48 49 50
000
ASUS43 KFSD 282310
RWRFSD

WEATHER ROUNDUP FOR SE SOUTH DAKOTA/SW MINNESOTA/NW IOWA
NATIONAL WEATHER SERVICE SIOUX FALLS SD
600 PM CDT SUN AUG 28 2016

NOTE: "FAIR" INDICATES FEW OR NO CLOUDS BELOW 12,000 FEET WITH NO
SIGNIFICANT WEATHER AND OR OBSTRUCTIONS TO VISIBILITY.


SDZ038>040-050-052>070-290000-
SOUTHEAST SOUTH DAKOTA

CITY           SKY/WX    TMP DP  RH WIND       PRES   REMARKS
BROOKINGS        N/A    N/A N/A N/A MISG        N/A
CHAMBERLAIN    SUNNY     93  64  37 S14G21    29.93S HX  95
HURON          SUNNY     92  66  42 S14G25    29.92F
MADISON        FAIR      82  72  69 S20       30.02S
MITCHELL       SUNNY     91  66  43 S16G24    29.95F
SIOUX FALLS    MOSUNNY   88  70  55 S20G26    30.02S
WINNER         FAIR      96  60  30 S15       29.95S HX  96
YANKTON        MOSUNNY   90  70  51 SE15      29.98S HX  95
$$

MNZ071-072-080-081-089-090-097-098-290000-
SOUTHWEST MINNESOTA

CITY           SKY/WX    TMP DP  RH WIND       PRES   REMARKS
FAIRMONT       SUNNY     83  70  64 SE13      30.09S
JACKSON          N/A     84  66  54 S9        30.10R
LUVERNE        MOSUNNY   84  70  61 S12       30.05S
MARSHALL       SUNNY     86  74  67 S15       30.02S
MONTEVIDEO     SUNNY     88  73  62 S13G18    30.02S HX  96
REDWOOD FALLS  SUNNY     84  71  65 SE17G23   30.03F
TRACY          SUNNY     85  74  69 S8        30.04S
WINDOM         SUNNY     84  70  61 SE13      30.07S
WORTHINGTON    MOSUNNY   83  73  72 SE12      30.08S
$$

IAZ001>003-012>014-020>022-031-032-NEZ013-014-SDZ071-290000-
NORTHWEST IOWA

CITY           SKY/WX    TMP DP  RH WIND       PRES   REMARKS
CHEROKEE       MOSUNNY   85  75  72 SE9       30.06R
DENISON        CLOUDY    82  70  65 SE13G28   30.08R HAZE
ESTHERVILLE    SUNNY     81  70  69 SE12      30.09R
LE MARS        MOSUNNY   86  72  62 S12       30.05R
ORANGE CITY    MOSUNNY   86  72  62 S8        30.06R
SHELDON        SUNNY     82  75  78 S12G18    30.05R
SIOUX CITY     CLOUDY    85  73  67 SE6       30.03S
SPENCER        SUNNY     85  72  65 SE13      30.08R
STORM LAKE     MOSUNNY   81  75  83 SE6       30.09R
$$

ABBREVIATIONS USED IN REMARKS
   TC - TEMPERATURE IN CELSIUS
  WCI - WIND CHILL INDEX
   HX - HEAT INDEX
  VSB - VISIBILITY




USA.gov is the U.S. government's official web portal to all federal, state and local government web resources and services.